Location: Cormont
(50.5693°N, 1.7416°E)
Time: 02:04:15
(UTC+00:00)

STARLINK-60 - Pass Details

Date: 21 October 2019
Orbit: 418 x 428 km, 53.0° (Epoch: 16 November)

Event Time Altitude Azimuth Distance (km) Brightness Sun altitude
Rises 18:15:16 0° 290° (WNW) 2,387 8.3 -14.3°
Reaches altitude 10° 18:17:25 10° 283° (WNW) 1,521 7.2 -14.6°
Maximum altitude 18:20:40 41° 212° (SSW) 630 4.1 -15.1°
Enters shadow 18:22:50 18° 148° (SSE) 1,122 4.9 -15.5°
